Regional Weather Roundup
Issued by NWS

Home | Current Version | Previous Version | Text Only | Print | Product List | Glossary On
Versions: 1 2 3 4 5 6 7 8 9 10 11 12 13 14 15 16 17 18 19 20 21 22 23 24 25 26 27 28 29 30 31 32 33 34 35 36 37 38 39 40 41 42 43 44 45 46 47 48 49 50
000
ASUS43 KDTX 241610
RWRMI
MICHIGAN HOURLY REGIONAL WEATHER ROUNDUP
NATIONAL WEATHER SERVICE DETROIT/PONTIAC MI
1200 PM EDT MON APR 24 2017

NOTE: "FAIR" INDICATES FEW OR NO CLOUDS BELOW 12,000 FEET WITH NO
SIGNIFICANT WEATHER AND/OR OBSTRUCTION TO VISIBILITY.

MIZ047>049-052>055-059>063-066>070-074>076-081>083-241700-
SOUTHEAST LOWER MICHIGAN

CITY           SKY/WX    TMP DP  RH WIND       PRES   REMARKS
ADRIAN         SUNNY     62  40  44 E10G17    30.05F
ALMA           SUNNY     58  40  51 E6        30.08F
ANN ARBOR      SUNNY     63  39  41 NE10      30.06F
BAD AXE        SUNNY     58  42  55 SE6       30.10F
CARO           SUNNY     63  38  40 CALM      30.07F
DETROIT CITY   SUNNY     59  43  55 E13       30.09S
DETROIT        MOSUNNY   63  40  42 E8        30.07F
FLINT          SUNNY     65  41  41 E6        30.06F
GROSSE ILE     SUNNY     62  43  50 NE9       30.06S
HILLSDALE      SUNNY     61  32  33 E12G18    30.03F
HOWELL         SUNNY     65  31  27 SE12      30.05F

CITY           SKY/WX    TMP DP  RH WIND       PRES   REMARKS
JACKSON        SUNNY     64  35  34 SE10      30.04F
LAMBERTVILLE   SUNNY     58  41  53 E8G16     30.05F
LANSING        SUNNY     65  33  30 SE10      30.06F
LAPEER         FAIR      62  39  41 S12       30.08F HAZE
MASON          SUNNY     65  39  38 E7        30.06F
MONROE         SUNNY     61  41  48 E8        30.06S
MT. CLEMENS    MOSUNNY   58  43  58 E5        30.07F
PONTIAC        MOSUNNY   62  37  39 E8        30.07F
PORT HOPE        N/A     43  39  86 E9        30.11F
PORT HURON     SUNNY     63  41  45 CALM      30.09F
TRI CITIES     SUNNY     58  42  55 E7        30.09F
MIDLAND        FAIR      57  41  55 E7        30.08F
TROY           SUNNY     61  35  37 E8        30.10S
SAGINAW HB     SUNNY     59  37  44 NE5       30.07F
$$
MIZ043>046-050>051-056>058-064>065-071>073-077>080-241700-
SOUTHWEST LOWER MICHIGAN

CITY           SKY/WX    TMP DP  RH WIND       PRES   REMARKS
BATTLE CREEK   SUNNY     65  31  28 SE14      30.04F
BENTON HARBOR  SUNNY     68  29  23 E10       30.01F
BIG RAPIDS     SUNNY     60  37  43 E6G16     30.06S
COLDWATER      SUNNY     65  28  24 E12G17    30.03F
FREMONT        FAIR      62  37  38 SE6       30.03F
HOLLAND        SUNNY     65  40  39 SE8       30.04F
GRAND RAPIDS   PTSUNNY   63  38  39 SE9       30.05F
IONIA          FAIR      59  42  52 SE6       30.06S
KALAMAZOO      SUNNY     68  30  24 E9        30.04F
LUDINGTON      MOSUNNY   64  42  45 SE6       30.02F
MARSHALL       SUNNY     65  34  31 E7G17     30.04F
MOUNT PLEASANT SUNNY     59  38  46 CALM      30.07F
MUSKEGON       MOSUNNY   66  40  38 SE9       30.03F
SOUTH HAVEN    SUNNY     66  32  27 SE7       30.02F
$$
MIZ016>042-241700-
NORTHERN LOWER MICHIGAN

CITY           SKY/WX    TMP DP  RH WIND       PRES   REMARKS
ALPENA         SUNNY     45  36  70 E12       30.15F
BEAVER ISLAND  SUNNY     45  35  66 E14       30.09S
BELLAIRE       SUNNY     60  35  39 S5        30.05F
CADILLAC       SUNNY     60  37  42 S10       30.05S
CHARLEVOIX     SUNNY     53  36  51 E10       30.08F
FRANKFORT      MOSUNNY   63  35  35 SW7       30.02F
GAYLORD        SUNNY     56  35  45 SE13      30.07F
GRAYLING       SUNNY     60  37  42 SE8       30.07F
HARBOR SPRINGS SUNNY     50  37  60 E12G17    30.08F
HOUGHTON LAKE  SUNNY     58  36  43 S9        30.08F
MANISTEE       SUNNY     65  38  36 S9        30.01F
OSCODA         SUNNY     46  36  67 E9        30.13F
PELLSTON       SUNNY     49  34  56 E14G21    30.10F
ROGERS CITY    SUNNY     42  33  71 E16G23    30.15F
TRAVERSE CITY  MOSUNNY   63  36  36 SE8       30.02F
$$
MIZ007>008-015-241700-
EASTERN UPPER MICHIGAN

CITY           SKY/WX    TMP DP  RH WIND       PRES   REMARKS
KINROSS        SUNNY     42  27  55 E16       30.14F
MACKINAC ISLAN SUNNY     38  30  73 E18G31    30.12F WCI  28
NEWBERRY       SUNNY     46  32  57 SE10G21   30.09F
S. S. MARIE    SUNNY     45  26  47 SE15G26   30.14F
MUNISING         N/A     50  32  50 SE9G17    30.03F
$$
MIZ004>006-011>014-085-241700-
CENTRAL UPPER MICHIGAN

CITY           SKY/WX    TMP DP  RH WIND       PRES   REMARKS
MANISTIQUE     MOSUNNY   43  36  75 E17G24    30.08S
ESCANABA       CLOUDY    43  34  70 E15       30.06S
MENOMINEE      MOSUNNY   46  35  65 E8        30.03F
$$
MIZ001>003-009>011-084-241700-
WESTERN UPPER MICHIGAN

CITY           SKY/WX    TMP DP  RH WIND       PRES   REMARKS
IRON MOUNTAIN  CLOUDY    46  30  53 SE8       30.00F
HOUGHTON       CLOUDY    38  29  70 E18G26    29.99F WCI  28
COPPER HARBOR    N/A     38  30  73 S8G29     30.05F WCI  32
IRONWOOD       CLOUDY    50  31  48 S6        29.89F
$$

ABBREVIATIONS USED IN REMARKS
   TC - TEMPERATURE IN CELSIUS
  WCI - WIND CHILL INDEX
   HX - HEAT INDEX
  VSB - VISIBILITY





USA.gov is the U.S. government's official web portal to all federal, state and local government web resources and services.